KC2DUX-10 Weather Reports


time (UTC)temp
F
wind
direction
speed
knots
gust
knots
rain 1hr
in
rain 24hr
in
rain mn
in
humidity
%
barometer
mb
20210518205501 0 178 7.8 15.6 0.00 0.01 0.01 1026.0
20210518205112 0 198 8.7 15.6 0.00 0.01 0.01 1026.1
20210518204735 0 190 9.6 13.9 0.00 0.01 0.01 1026.1
20210518204059 0 202 8.7 13.9 0.00 0.01 0.01 1026.1
20210518203557 0 188 7.0 17.4 0.00 0.01 0.01 1026.3
20210518203110 0 199 8.7 16.5 0.00 0.01 0.01 1026.3
20210518202552 0 153 9.6 14.8 0.00 0.01 0.01 1026.3
20210518202051 0 182 9.6 15.6 0.00 0.01 0.01 1026.4
20210518201641 0 192 8.7 15.6 0.00 0.01 0.01 1026.5
20210518201047 0 173 11.3 18.2 0.00 0.01 0.01 1026.4
20210518200546 0 190 9.6 13.9 0.00 0.01 0.01 1026.4
20210518200127 0 169 7.0 13.0 0.00 0.01 0.01 1026.5
20210518195552 0 186 7.8 15.6 0.00 0.01 0.01 1026.4
20210518195042 0 184 8.7 15.6 0.00 0.01 0.01 1026.6
20210518194554 0 181 7.8 12.2 0.00 0.01 0.01 1026.7
20210518194039 0 199 6.1 9.6 0.00 0.01 0.01 1026.7
20210518193537 0 192 5.2 12.2 0.00 0.01 0.01 1026.7
20210518193140 0 184 7.0 12.2 0.00 0.01 0.01 1026.7
20210518192538 0 171 6.1 9.6 0.00 0.01 0.01 1026.8
20210518192033 0 185 6.1 9.6 0.00 0.01 0.01 1026.8
20210518191558 0 157 7.0 9.6 0.00 0.01 0.01 1026.9
20210518191031 0 194 6.1 9.6 0.00 0.01 0.01 1027.0
20210518190541 0 167 6.1 13.9 0.00 0.01 0.01 1027.0
20210518190055 0 194 7.8 13.9 0.00 0.01 0.01 1027.1
20210518185527 0 179 8.7 11.3 0.00 0.01 0.01 1027.2
20210518185026 0 182 5.2 10.4 0.00 0.01 0.01 1027.2
20210518184608 0 158 4.3 10.4 0.00 0.01 0.01 1027.3
20210518184023 0 155 7.0 11.3 0.00 0.01 0.01 1027.3
20210518183522 0 179 5.2 13.0 0.00 0.01 0.01 1027.4
20210518183034 0 185 7.8 13.0 0.00 0.01 0.01 1027.4
20210518182518 0 192 7.0 13.0 0.00 0.01 0.01 1027.4
20210518182016 0 192 7.8 9.6 0.00 0.01 0.01 1027.4
20210518181523 0 191 6.1 12.2 0.00 0.01 0.01 1027.5
20210518181022 0 186 5.2 12.2 0.00 0.01 0.01 1027.5
20210518180511 0 200 7.0 11.3 0.00 0.01 0.01 1027.5
20210518180015 0 192 6.1 11.3 0.00 0.01 0.01 1027.6
20210518175535 0 215 7.0 9.6 0.00 0.01 0.01 1027.7
20210518175012 0 211 7.0 9.6 0.00 0.01 0.01 1027.7
20210518174506 0 211 7.0 9.6 0.00 0.01 0.01 1027.8
20210518174005 0 191 7.0 9.6 0.00 0.01 0.01 1027.7
20210518173506 0 186 6.1 11.3 0.00 0.01 0.01 1027.8
20210518173002 0 207 6.1 9.6 0.00 0.01 0.01 1027.8
20210518172559 0 215 6.1 9.6 0.00 0.01 0.01 1027.8
20210518172100 0 219 5.2 9.6 0.00 0.01 0.01 1027.9
20210518171643 0 253 5.2 8.7 0.00 0.01 0.01 1027.9
20210518171058 0 235 4.3 8.7 0.00 0.01 0.01 1027.9
20210518170553 0 244 6.1 8.7 0.00 0.01 0.01 1028.1
20210518170149 0 233 5.2 7.8 0.00 0.01 0.01 1028.1
20210518165550 0 245 4.3 7.8 0.00 0.01 0.01 1028.1
20210518165048 0 239 3.5 7.8 0.00 0.01 0.01 1028.1
20210518164622 0 229 4.3 7.0 0.00 0.01 0.01 1028.2
20210518164046 0 235 4.3 8.7 0.00 0.01 0.01 1028.2
20210518163545 0 231 3.5 8.7 0.00 0.01 0.01 1028.3
20210518163049 0 246 3.5 6.1 0.00 0.01 0.01 1028.4
20210518162542 0 246 2.6 7.8 0.00 0.01 0.01 1028.5
20210518162045 0 275 5.2 8.7 0.00 0.01 0.01 1028.6
20210518161541 0 273 5.2 8.7 0.00 0.01 0.01 1028.6
20210518161037 0 265 2.6 7.8 0.00 0.01 0.01 1028.5
20210518160536 0 274 3.5 7.8 0.00 0.01 0.01 1028.6
20210518160102 0 269 2.6 7.8 0.00 0.01 0.01 1028.6
20210518155539 0 250 5.2 7.8 0.00 0.01 0.01 1028.6
20210518155035 0 279 2.6 8.7 0.00 0.01 0.01 1028.6
20210518154554 0 261 5.2 8.7 0.00 0.01 0.01 1028.8
20210518154028 0 268 5.2 8.7 0.00 0.01 0.01 1028.8
20210518153527 0 293 5.2 8.7 0.00 0.01 0.01 1028.8
20210518153047 0 240 4.3 9.6 0.00 0.01 0.01 1028.9
20210518152538 0 279 5.2 10.4 0.00 0.01 0.01 1028.9
20210518152038 0 341 6.1 10.4 0.00 0.01 0.01 1028.9
20210518151541 0 294 5.2 11.3 0.00 0.01 0.01 1028.9
20210518151019 0 308 6.1 11.3 0.00 0.01 0.01 1028.8
20210518150518 0 272 7.8 10.4 0.00 0.01 0.01 1028.8
20210518150042 0 269 6.1 10.4 0.00 0.01 0.01 1028.8
20210518145519 0 258 7.8 10.4 0.00 0.01 0.01 1028.8
20210518145013 0 273 7.0 10.4 0.00 0.01 0.01 1029.0
20210518144512 0 298 7.0 10.4 0.00 0.01 0.01 1029.0
20210518144010 0 292 5.2 8.7 0.00 0.01 0.01 1029.0
20210518143509 0 261 6.1 9.6 0.00 0.01 0.01 1028.9
20210518143043 0 272 7.0 11.3 0.00 0.01 0.01 1028.9
20210518142506 0 284 7.0 11.3 0.00 0.01 0.01 1028.9
20210518142005 0 286 7.8 10.4 0.00 0.01 0.01 1028.9
20210518141504 0 281 8.7 14.8 0.00 0.01 0.01 1029.0
20210518141001 0 267 7.0 14.8 0.00 0.01 0.01 1029.0
20210518140607 0 275 8.7 10.4 0.00 0.01 0.01 1029.0
20210518140205 0 290 7.0 10.4 0.00 0.01 0.01 1028.9
20210518135558 0 284 7.0 10.4 0.00 0.01 0.01 1029.0
20210518135058 0 256 7.8 11.3 0.00 0.01 0.01 1029.0
20210518134740 0 256 8.7 11.3 0.00 0.01 0.01 1029.0
20210518134054 0 265 7.0 10.4 0.00 0.01 0.01 1029.0
20210518133616 0 257 7.0 10.4 0.00 0.01 0.01 1029.0
20210518133102 0 280 7.8 10.4 0.00 0.01 0.01 1029.1
20210518132553 0 283 7.8 9.6 0.00 0.01 0.01 1029.0
20210518132108 0 272 7.0 8.7 0.00 0.01 0.01 1028.9
20210518131720 0 280 6.1 8.7 0.00 0.01 0.01 1028.9
20210518131043 0 272 6.1 9.6 0.00 0.01 0.01 1028.8
20210518130606 0 285 7.0 9.6 0.00 0.01 0.01 1028.6
20210518130106 0 260 7.0 8.7 0.00 0.01 0.01 1028.6
20210518125539 0 242 4.3 7.8 0.00 0.01 0.01 1028.5
20210518125038 0 243 5.2 7.8 0.00 0.01 0.01 1028.4
20210518124634 0 235 4.3 8.7 0.00 0.01 0.01 1028.3
20210518124101 0 242 5.2 8.7 0.00 0.01 0.01 1028.3
20210518123537 0 246 6.1 7.8 0.00 0.01 0.01 1028.2
20210518123054 0 219 2.6 7.8 0.00 0.01 0.01 1028.2
20210518122556 0 235 4.3 6.1 0.00 0.01 0.01 1028.2
20210518122046 0 221 3.5 6.1 0.00 0.01 0.01 1028.1
20210518121552 0 242 4.3 7.8 0.00 0.01 0.01 1028.1
20210518121026 0 236 3.5 7.0 0.00 0.01 0.01 1028.1
20210518120524 0 248 3.5 6.1 0.00 0.01 0.01 1028.0
20210518120026 0 244 2.6 6.1 0.00 0.01 0.01 1027.9
20210518115523 0 231 3.5 6.1 0.00 0.01 0.01 1028.0
20210518115020 0 250 2.6 5.2 0.00 0.01 0.01 1028.0
20210518114535 0 360 1.7 5.2 0.00 0.01 0.01 1027.9
20210518114017 0 360 3.5 5.2 0.00 0.01 0.01 1028.0
20210518113519 0 360 2.6 4.3 0.00 0.01 0.01 1027.9
20210518113046 0 252 2.6 6.1 0.00 0.01 0.01 1027.8
20210518112519 0 360 3.5 6.1 0.00 0.01 0.01 1027.8
20210518112016 0 250 3.5 7.0 0.00 0.01 0.01 1027.6
20210518111511 0 244 3.5 7.0 0.00 0.01 0.01 1027.6
20210518111008 0 248 2.6 7.0 0.00 0.01 0.01 1027.5
20210518110510 0 239 2.6 7.0 0.00 0.01 0.01 1027.4
20210518110008 0 248 2.6 6.1 0.00 0.01 0.01 1027.3
20210518105505 0 252 3.5 6.1 0.00 0.01 0.01 1027.3
20210518105009 0 256 3.5 6.1 0.00 0.01 0.01 1027.3
20210518104103 0 242 2.6 3.5 0.00 0.01 0.01 1027.3
20210518103558 0 245 2.6 3.5 0.00 0.01 0.01 1027.2
20210518103141 0 247 0.9 3.5 0.00 0.01 0.01 1027.2
20210518102557 0 360 1.7 4.3 0.00 0.01 0.01 1027.2
20210518102053 0 248 2.6 6.1 0.00 0.01 0.01 1027.1
20210518101704 0 251 3.5 6.1 0.00 0.01 0.01 1027.1
20210518101121 0 256 3.5 4.3 0.00 0.01 0.01 1027.0
20210518100557 0 257 2.6 4.3 0.00 0.01 0.01 1027.0
20210518100155 0 261 2.6 3.5 0.00 0.01 0.01 1027.1
20210518095545 0 261 2.6 3.5 0.00 0.01 0.01 1027.0
20210518095050 0 248 2.6 4.3 0.00 0.01 0.01 1027.0
20210518094559 0 235 1.7 4.3 0.00 0.01 0.01 1027.0
20210518094043 0 232 2.6 4.3 0.00 0.01 0.01 1027.0
20210518093543 0 225 2.6 4.3 0.00 0.01 0.01 1027.0
20210518093114 0 238 2.6 7.0 0.00 0.01 0.01 1027.0
20210518092545 0 243 2.6 7.0 0.00 0.01 0.01 1026.9
20210518092039 0 233 3.5 6.1 0.00 0.01 0.01 1026.8
20210518091550 0 221 3.5 6.1 0.00 0.01 0.01 1026.8
20210518091033 0 223 3.5 6.1 0.00 0.01 0.01 1026.8
20210518090533 0 211 3.5 5.2 0.00 0.01 0.01 1026.8
20210518090034 0 213 2.6 4.3 0.00 0.01 0.01 1026.8
20210518085528 0 216 2.6 4.3 0.00 0.01 0.01 1026.7
20210518085033 0 218 2.6 4.3 0.00 0.01 0.01 1026.7
20210518084609 0 217 3.5 4.3 0.00 0.01 0.01 1026.6
20210518084023 0 219 3.5 4.3 0.00 0.01 0.01 1026.5
20210518083530 0 226 2.6 3.5 0.00 0.01 0.01 1026.5
20210518083024 0 240 1.7 3.5 0.00 0.01 0.01 1026.5
20210518082545 0 360 1.7 4.3 0.00 0.01 0.01 1026.4
20210518082018 0 360 2.6 4.3 0.00 0.01 0.01 1026.4
20210518081521 0 360 3.5 4.3 0.00 0.01 0.01 1026.4
20210518081014 0 360 2.6 4.3 0.00 0.01 0.01 1026.4
20210518080513 0 360 2.6 3.5 0.00 0.01 0.01 1026.3
20210518080034 0 360 1.7 4.3 0.00 0.01 0.01 1026.3
20210518075515 0 360 2.6 4.3 0.00 0.01 0.01 1026.4
20210518075016 0 360 2.6 4.3 0.00 0.01 0.01 1026.4
20210518074536 0 360 2.6 4.3 0.00 0.01 0.01 1026.4
20210518074006 0 360 2.6 4.3 0.00 0.01 0.01 1026.4
20210518073504 0 360 3.5 4.3 0.00 0.01 0.01 1026.4
20210518073005 0 360 2.6 7.0 0.00 0.01 0.01 1026.4
20210518072501 0 360 3.5 7.0 0.00 0.01 0.01 1026.5
20210518072127 0 360 3.5 5.2 0.00 0.01 0.01 1026.4
20210518071630 0 360 3.5 4.3 0.00 0.01 0.01 1026.4
20210518071104 0 360 3.5 7.0 0.00 0.01 0.01 1026.3
20210518070606 0 360 3.5 7.0 0.00 0.01 0.01 1026.3
20210518070136 0 360 3.5 7.8 0.00 0.01 0.01 1026.2
20210518065603 0 360 3.5 7.8 0.00 0.01 0.01 1026.2
20210518065133 0 194 3.5 6.1 0.00 0.01 0.01 1026.2
20210518064601 0 360 3.5 5.2 0.00 0.01 0.01 1026.2
20210518064049 0 198 3.5 5.2 0.00 0.01 0.01 1026.2
20210518063546 0 202 2.6 5.2 0.00 0.01 0.01 1026.1
20210518063239 0 205 2.6 5.2 0.00 0.01 0.01 1026.2
20210518062543 0 190 3.5 5.2 0.00 0.01 0.01 1026.2
20210518062042 0 188 3.5 5.2 0.00 0.01 0.01 1026.2
20210518061614 0 182 2.6 4.3 0.00 0.01 0.01 1026.2
20210518061039 0 186 2.6 5.2 0.00 0.01 0.01 1026.2
20210518060537 0 184 3.5 5.2 0.00 0.01 0.01 1026.2
20210518060131 0 182 2.6 4.3 0.00 0.01 0.01 1026.2
20210518055535 0 190 2.6 4.3 0.00 0.01 0.01 1026.2
20210518055037 0 198 2.6 4.3 0.00 0.01 0.01 1026.2
20210518054604 0 199 2.6 3.5 0.00 0.01 0.01 1026.2
20210518054034 0 210 1.7 3.5 0.00 0.01 0.01 1026.3
20210518053548 0 360 1.7 3.5 0.00 0.01 0.01 1026.3
20210518053105 0 360 2.6 4.3 0.00 0.01 0.01 1026.3
20210518052525 0 360 1.7 4.3 0.01 0.01 0.01 1026.3
20210518052024 0 360 2.6 5.2 0.01 0.01 0.01 1026.4
20210518051550 0 360 3.5 5.2 0.01 0.01 0.01 1026.4
20210518051021 0 360 3.5 5.2 0.01 0.01 0.01 1026.4
20210518050523 0 360 3.5 4.3 0.01 0.01 0.01 1026.3
20210518050036 0 360 2.6 4.3 0.01 0.01 0.01 1026.4
20210518045517 0 360 2.6 5.2 0.01 0.01 0.01 1026.4
20210518045019 0 360 3.5 5.2 0.01 0.01 0.01 1026.4
20210518044523 0 360 2.6 4.3 0.01 0.01 0.01 1026.4
20210518044012 0 360 2.6 4.3 0.01 0.01 0.01 1026.5
20210518043512 0 360 2.6 5.2 0.01 0.01 0.01 1026.5
20210518043011 0 360 2.6 5.2 0.01 0.01 0.01 1026.5
20210518042510 0 360 2.6 5.2 0.00 0.00 0.00 1026.5
20210518042006 0 360 2.6 4.3 0.00 0.00 0.00 1026.5
20210518041507 0 360 1.7 4.3 0.00 0.00 0.00 1026.6
20210518041003 0 360 2.6 5.2 0.00 0.00 0.00 1026.5
20210518040505 0 360 2.6 5.2 0.00 0.00 0.00 1026.5
20210518040211 0 360 2.6 4.3 0.00 0.00 0.00 1026.5
20210518035559 0 360 2.6 4.3 0.00 0.00 0.00 1026.6
20210518035058 0 360 2.6 4.3 0.00 0.00 0.00 1026.5
20210518034704 0 360 3.5 4.3 0.00 0.00 0.00 1026.5
20210518034114 0 360 2.6 5.2 0.00 0.00 0.00 1026.5
20210518033606 0 360 2.6 5.2 0.00 0.00 0.00 1026.4
20210518033151 0 360 2.6 5.2 0.00 0.00 0.00 1026.4
20210518032551 0 360 3.5 5.2 0.00 0.00 0.00 1026.5
20210518032049 0 360 3.5 5.2 0.00 0.00 0.00 1026.4
20210518031644 0 360 2.6 5.2 0.00 0.00 0.00 1026.4
20210518031045 0 360 3.5 5.2 0.00 0.00 0.00 1026.4
20210518030606 0 360 2.6 7.0 0.00 0.00 0.00 1026.4
20210518030108 0 360 3.5 7.0 0.00 0.00 0.00 1026.4
20210518025541 0 360 2.6 5.2 0.00 0.00 0.00 1026.3
20210518025043 0 360 2.6 5.2 0.00 0.00 0.00 1026.3
20210518024625 0 360 2.6 5.2 0.00 0.00 0.00 1026.3
20210518024036 0 360 2.6 4.3 0.00 0.00 0.00 1026.3
20210518023546 0 200 2.6 5.2 0.00 0.00 0.00 1026.3
20210518023106 0 188 2.6 4.3 0.00 0.00 0.00 1026.3
20210518022559 0 192 2.6 4.3 0.00 0.00 0.00 1026.3
20210518022031 0 192 1.7 5.2 0.00 0.00 0.00 1026.4
20210518021631 0 186 3.5 6.1 0.00 0.00 0.00 1026.3
20210518021034 0 197 3.5 6.1 0.00 0.00 0.00 1026.3
20210518020526 0 192 2.6 6.1 0.00 0.00 0.00 1026.4
20210518020052 0 192 3.5 6.1 0.00 0.00 0.00 1026.3
20210518015523 0 195 4.3 7.0 0.00 0.00 0.00 1026.3
20210518015022 0 180 4.3 7.0 0.00 0.00 0.00 1026.2
20210518014535 0 184 3.5 6.1 0.00 0.00 0.00 1026.2
20210518014036 0 184 3.5 6.1 0.00 0.00 0.00 1026.1
20210518013518 0 198 2.6 5.2 0.00 0.00 0.00 1026.1
20210518013055 0 182 3.5 5.2 0.00 0.00 0.00 1026.1
20210518012534 0 195 2.6 5.2 0.00 0.00 0.00 1026.0
20210518012013 0 186 2.6 4.3 0.00 0.00 0.00 1026.0
20210518011524 0 173 1.7 6.1 0.00 0.00 0.00 1026.0
20210518011011 0 192 2.6 7.0 0.00 0.00 0.00 1026.0
20210518010513 0 191 3.5 6.1 0.00 0.00 0.00 1025.9
20210518010009 0 191 3.5 6.1 0.00 0.00 0.00 1025.9
20210518005513 0 191 3.5 6.1 0.00 0.00 0.00 1025.8
20210518005009 0 184 2.6 6.1 0.00 0.00 0.00 1025.7
20210518004504 0 184 3.5 6.1 0.00 0.00 0.00 1025.7
20210518004002 0 179 1.7 6.1 0.00 0.00 0.00 1025.6
20210518003600 0 179 3.5 6.1 0.00 0.00 0.00 1025.6
20210518003206 0 191 3.5 6.1 0.00 0.00 0.00 1025.6
20210518002558 0 166 2.6 5.2 0.00 0.00 0.00 1025.6
20210518002101 0 169 2.6 6.1 0.00 0.00 0.00 1025.6
20210518001620 0 171 2.6 5.2 0.00 0.00 0.00 1025.7
20210518001059 0 173 2.6 6.1 0.00 0.00 0.00 1025.7
20210518000551 0 184 3.5 6.1 0.00 0.00 0.00 1025.7
20210518000119 0 187 3.5 5.2 0.00 0.00 0.00 1025.7
20210517235548 0 178 1.7 5.2 0.00 0.00 0.00 1025.7
20210517235052 0 188 2.6 5.2 0.00 0.00 0.00 1025.7
20210517234626 0 178 2.6 4.3 0.00 0.00 0.00 1025.7
20210517234050 0 170 2.6 4.3 0.00 0.00 0.00 1025.6
20210517233544 0 184 1.7 5.2 0.00 0.00 0.00 1025.6
20210517233106 0 173 1.7 5.2 0.00 0.00 0.00 1025.6
20210517232557 0 175 2.6 5.2 0.00 0.00 0.00 1025.5
20210517232039 0 169 1.7 4.3 0.00 0.00 0.00 1025.5
20210517231613 0 150 1.7 6.1 0.00 0.00 0.00 1025.4
20210517231049 0 173 3.5 7.8 0.00 0.00 0.00 1025.4
20210517230537 0 167 3.5 8.7 0.00 0.00 0.00 1025.3
20210517230039 0 360 3.5 8.7 0.00 0.00 0.00 1025.4
20210517225530 0 360 4.3 7.8 0.00 0.00 0.00 1025.3
20210517225035 0 171 4.3 8.7 0.00 0.00 0.00 1025.3
20210517224533 0 168 3.5 7.8 0.00 0.00 0.00 1025.1
20210517224025 0 159 3.5 8.7 0.00 0.00 0.00 1025.1
20210517223528 0 148 3.5 10.4 0.00 0.00 0.00 1025.1
20210517223107 0 178 4.3 10.4 0.00 0.00 0.00 1025.1
20210517222522 0 175 5.2 9.6 0.00 0.00 0.00 1025.2
20210517222020 0 186 6.1 9.6 0.00 0.00 0.00 1025.3
20210517221601 0 180 5.2 8.7 0.00 0.00 0.00 1025.4
20210517221047 0 172 3.5 7.8 0.00 0.00 0.00 1025.4
20210517220540 0 186 3.5 8.7 0.00 0.00 0.00 1025.4
20210517220033 0 172 4.3 10.4 0.00 0.00 0.00 1025.3
20210517215517 0 360 5.2 9.6 0.00 0.00 0.00 1025.4
20210517215014 0 360 5.2 9.6 0.00 0.00 0.00 1025.5
20210517214537 0 175 6.1 9.6 0.00 0.00 0.00 1025.5
20210517214015 0 172 4.3 8.7 0.00 0.00 0.00 1025.5
20210517213511 0 170 4.3 7.8 0.00 0.00 0.00 1025.5
20210517213009 0 173 4.3 7.8 0.00 0.00 0.00 1025.4
20210517212506 0 182 4.3 8.7 0.00 0.00 0.00 1025.5
20210517212004 0 174 4.3 8.7 0.00 0.00 0.00 1025.4
20210517211631 0 184 4.3 7.8 0.00 0.00 0.00 1025.4
20210517211059 0 154 5.2 9.6 0.00 0.00 0.00 1025.5
20210517210612 0 167 6.1 9.6 0.00 0.00 0.00 1025.4
20210517210210 0 160 4.3 7.8 0.00 0.00 0.00 1025.5